Regional Weather Roundup
Issued by NWS

Home | Current Version | Previous Version | Graphics & Text | Print | Product List | Glossary On
Versions: 1 2 3 4 5 6 7 8 9 10 11 12 13 14 15 16 17 18 19 20 21 22 23 24 25 26 27 28 29 30 31 32 33 34 35 36 37 38 39 40 41 42 43 44 45 46 47 48 49 50
008
ASUS43 KDMX 250101
RWRIA

WEATHER ROUNDUP FOR IOWA
NATIONAL WEATHER SERVICE DES MOINES IA
800 PM CDT SAT JUN 24 2017

NOTE: "FAIR" INDICATES FEW OR NO CLOUDS BELOW 12,000 FEET WITH NO
SIGNIFICANT WEATHER AND/OR OBSTRUCTIONS TO VISIBILITY.

* - THESE STATIONS ARE NOT NWS STATIONS...THUS NOT UNDER NWS
QUALITY CONTROL.  THEY ALSO DO NOT REPORT WEATHER SUCH
AS PRECIPITATION OR FOG.

IAZ001>003-012>014-020>022-031>034-043>046-250200-
   NORTHWEST IOWA

CITY           SKY/WX    TMP DP  RH WIND       PRES   REMARKS
CARROLL *      CLEAR     72  39  30 NW16G23   30.10R
CHEROKEE *     CLEAR     68  40  36 N12G23    30.12R
DENISON *      CLEAR     72  39  30 NW12G21   30.13R
LE MARS *      SUNNY     70  39  32 N13G26    30.13R
ORANGE CITY *  SUNNY     66  43  42 N12G17    30.13R
SHELDON *      CLEAR     66  39  37 NW20G25   30.11S
SIOUX CITY     SUNNY     73  38  27 NW16      30.11R
SPENCER        CLEAR     66  40  38 NW18G28   30.12R
STORM LAKE *   CLEAR     68  37  32 NW16G25   30.12R
$$

IAZ055>058-069>071-079>083-090>094-250200-
   SOUTHWEST IOWA

CITY           SKY/WX    TMP DP  RH WIND       PRES   REMARKS
ATLANTIC *     CLEAR     73  43  33 NW7       30.11R
AUDUBON *      CLEAR     72  37  28 NW12      30.12R
CLARINDA *     CLEAR     73  46  38 W8        30.14R
COUNCIL BLFS * CLOUDY    73  41  31 NW7       30.12R
CRESTON *      CLEAR     73  43  33 NW8       30.12S
HARLAN  *      CLEAR     73  41  31 NW12G21   30.15R
LAMONI         CLEAR     73  47  39 SW6       30.11S
RED OAK *      PTCLDY    72  45  37 W6        30.12R
SHENANDOAH *   PTCLDY    73  48  40 W6        30.13R
$$

IAZ047>049-059>061-072>074-084-250200-
   CENTRAL IOWA

CITY           SKY/WX    TMP DP  RH WIND       PRES   REMARKS
AMES           CLEAR     72  43  35 N15       30.08R
ANKENY *       CLEAR     73  41  31 NW13G20   30.08R
BOONE *        CLEAR     70  41  35 NW15G22   30.08R
CHARITON *     CLEAR     73  43  33 NW7       30.09R
DES MOINES     PTCLDY    75  38  26 NW18G25   30.07R
GRINNELL*      CLEAR     71  40  32 NW15      30.08R
KNOXVILLE *    CLEAR     73  43  33 NW9       30.07R
MARSHALLTOWN   PTCLDY    69  43  38 NW16G26   30.07R
NEWTON *       CLEAR     72  41  33 NW12G20   30.07R
PELLA *        CLEAR     74  40  29 NW7G16    30.08R
PERRY *          N/A     73  36  26 NW9       30.09R
$$

IAZ004>006-015-016-023>025-035-036-250200-
   NORTH CENTRAL IOWA

CITY           SKY/WX    TMP DP  RH WIND       PRES   REMARKS
ALGONA *       CLEAR     66  37  34 NW15G22   30.10R
CLARION *        N/A     66  41  39 NW18G26   30.09R
ESTHERVILLE    CLEAR     63  39  41 NW17G23   30.11R
FORT DODGE *   CLEAR     68  41  37 NW9G16    30.11R
MASON CITY     CLEAR     64  38  38 NW16G26   30.09R
FOREST CITY *    N/A     64  28  25 NW16G23   30.09R
WEBSTER CITY * CLEAR     68  43  40 NW15G22   30.07R
IOWA FALLS *     N/A     68  41  37 NW16G29   30.09R
$$

IAZ007>011-017>019-026>030-037>042-050>054-066-250200-
   NORTHEAST IOWA

CITY           SKY/WX    TMP DP  RH WIND       PRES   REMARKS
CEDAR RAPIDS   CLOUDY    71  45  39 NW14G26   30.04R
CHARLES CITY * CLEAR     64  41  42 NW18G25   30.07R
CLINTON *      MOCLDY    68  48  48 SW10      30.03S
DECORAH *      CLEAR     59  52  77 NW5       30.05R
DUBUQUE        PTCLDY    60  53  77 N5        30.05R
MONTICELLO *   CLOUDY    64  52  63 NW5       30.04R
OELWEIN *      CLEAR     64  50  59 N7        30.06R
WATERLOO       CLEAR     68  42  38 NW15G24   30.05R
$$

IAZ064-065-067-068-078-250200-
   EAST CENTRAL IOWA

CITY           SKY/WX    TMP DP  RH WIND       PRES   REMARKS
DAVENPORT      MOCLDY    67  47  48 W7        30.04S
IOWA CITY      CLOUDY    70  52  52 W3        30.05R
MT. PLEASANT * CLEAR     71  40  32 SW8       30.07S
MUSCATINE *    PTCLDY    73  43  33 SW12G17   30.04F
QUAD CITIES    MOCLDY    71  43  36 SW7       30.04S
$$

IAZ062-063-075>077-085>089-095>099-250200-
   SOUTHEAST IOWA

CITY           SKY/WX    TMP DP  RH WIND       PRES   REMARKS
BURLINGTON     CLEAR     71  45  39 W7        30.07F
FAIRFIELD *    PTCLDY    73  41  31 W12       30.06S
FORT MADISON * CLEAR     73  45  35 SW6       30.09S
KEOKUK *       CLEAR     72  46  40 SW7       30.09S
OSKALOOSA *      N/A     72  46  39 W9        30.07S
OTTUMWA        PTCLDY    72  44  36 W9        30.07R
WASHINGTON *   PTCLDY    72  46  40 SW10      30.06F
$$

ABBREVIATIONS USED IN REMARKS
   TC - TEMPERATURES IN CELSIUS
  WCI - WIND CHILL INDEX
   HX - HEAT INDEX
  VSB - VISIBILITY
$$





USA.gov is the U.S. government's official web portal to all federal, state and local government web resources and services.